Valparaiso, IN

8:06 AM CDT on October 20, 2017 (GMT -0500)
Porter County Municipal

Weather History for KVPZ - April, 2013

Change the Weather History Date:

Monday, April 29, 2013

  Actual Average Record
Temperature  
Mean Temperature 58 °F 54 °F  
Max Temperature 72 °F 65 °F 80 °F (2007)
Min Temperature 44 °F 43 °F 32 °F (2008)
Degree Days  
Heating Degree Days 7 11  
Month to date heating degree days 524 470  
Since 1 July heating degree days 5893 6047  
Cooling Degree Days 0 0  
Month to date cooling degree days 0 0  
Year to date cooling degree days 0 0  
Growing Degree Days 8 (Base 50)    
Moisture  
Dew Point 48 °F    
Average Humidity 84    
Maximum Humidity 100    
Minimum Humidity 48    
Precipitation  
Precipitation 0.00 in 0.16 in 0.51 in (2017)
Month to date precipitation 6.18 3.35  
Year to date precipitation 10.27 9.00  
Sea Level Pressure  
Sea Level Pressure 29.90 in    
Wind  
Wind Speed 8 mph (SSW)    
Max Wind Speed 18 mph    
Max Gust Speed 23 mph    
Visibility 4 miles    
Events Fog    
T = Trace of Precipitation, MM = Missing Value Source: NWS Daily Summary

Daily Weather History Graph

Daily Weather History Graph

Search for Another Location

Airport or City:

Trip Planner

Search our weather history database for the weather conditions in past years. The results will help you decide how hot, cold, wet, or windy it might be!

Date:

Astronomy

Apr. 29, 2013 Rise Set
Actual Time 5:47 AM CDT 7:43 PM CDT
Civil Twilight 5:17 AM CDT 8:13 PM CDT
Nautical Twilight 4:41 AM CDT 8:50 PM CDT
Astronomical Twilight 4:01 AM CDT 9:30 PM CDT
Moon No Moon Rise 9:06 AM CDT (4/29)
Length of Visible Light 14h 56m
Length of Day
13h 56m
Waning Gibbous, 80% of the Moon is Illuminated
Apr 29
Waning Gibbous
May 2
Last Quarter
May 9
New
May 17
First Quarter
May 24
Full

Hourly Weather History & Observations

Time (CDT) Temp. Windchill Dew Point Humidity Pressure Visibility Wind Dir Wind Speed Gust Speed Precip Events Conditions
12:01 AM 46.4 °F - 46.4 °F 100% 29.88 in 2.0 mi Calm Calm - N/A   Clear
12:10 AM 48.2 °F - 46.4 °F 93% 29.88 in 1.8 mi Calm Calm - N/A   Clear
12:27 AM 46.4 °F - 46.4 °F 100% 29.88 in 0.8 mi Calm Calm - N/A   Clear
12:50 AM 46.4 °F - 46.4 °F 100% 29.89 in 1.5 mi Calm Calm - N/A   Clear
12:53 AM 46.9 °F - 46.0 °F 97% 29.89 in 1.0 mi Calm Calm - N/A   Clear
12:57 AM 46.4 °F - 46.4 °F 100% 29.88 in 0.8 mi Calm Calm - N/A   Mist
1:25 AM 46.4 °F - 46.4 °F 100% 29.89 in 0.2 mi Calm Calm - N/A Fog Fog
1:53 AM 46.0 °F - 45.0 °F 96% 29.89 in 0.5 mi Calm Calm - N/A Fog Fog
1:57 AM 44.6 °F - 44.6 °F 100% 29.88 in 0.2 mi Calm Calm - N/A Fog Fog
2:30 AM 44.6 °F - 44.6 °F 100% 29.88 in 1.0 mi Calm Calm - N/A   Mist
2:32 AM 44.6 °F - 44.6 °F 100% 29.88 in 2.0 mi Calm Calm - N/A   Scattered Clouds
2:53 AM 48.0 °F - 46.9 °F 96% 29.88 in 1.2 mi Calm Calm - N/A   Clear
3:03 AM 46.4 °F - 46.4 °F 100% 29.88 in 0.8 mi Calm Calm - N/A   Mist
3:13 AM 44.6 °F - 44.6 °F 100% 29.88 in 1.0 mi Calm Calm - N/A   Clear
3:23 AM 44.6 °F - 42.8 °F 93% 29.88 in 2.5 mi Calm Calm - N/A   Partly Cloudy
3:29 AM 44.6 °F - 42.8 °F 93% 29.88 in 0.8 mi Calm Calm - N/A   Mist
3:39 AM 44.6 °F - 44.6 °F 100% 29.88 in 0.2 mi Calm Calm - N/A Fog Fog
3:53 AM 44.1 °F - 44.1 °F 100% 29.89 in 0.2 mi Calm Calm - N/A Fog Fog
4:53 AM 45.0 °F 42.6 °F 45.0 °F 100% 29.91 in 0.2 mi SW 4.6 mph - N/A Fog Fog
5:28 AM 44.6 °F - 44.6 °F 100% 29.91 in 0.2 mi Calm Calm - N/A Fog Fog
5:45 AM 44.6 °F 41.4 °F 44.6 °F 100% 29.92 in 0.8 mi SSW 5.8 mph - N/A   Mist
5:53 AM 46.0 °F 43.9 °F 45.0 °F 96% 29.92 in 0.2 mi SSW 4.6 mph - N/A Fog Fog
6:13 AM 48.2 °F - 46.4 °F 93% 29.93 in 1.0 mi SW 4.6 mph - N/A   Mist
6:21 AM 48.2 °F - 46.4 °F 93% 29.93 in 1.2 mi SW 4.6 mph - N/A   Partly Cloudy
6:39 AM 48.2 °F - 48.2 °F 100% 29.94 in 2.0 mi SW 5.8 mph - N/A   Clear
6:53 AM 50.0 °F - 48.9 °F 96% 29.95 in 2.5 mi WSW 8.1 mph - N/A   Clear
7:24 AM 51.8 °F - 50.0 °F 94% 29.95 in 3.0 mi SW 5.8 mph - N/A   Clear
7:53 AM 51.1 °F - 50.0 °F 96% 29.96 in 3.0 mi SW 4.6 mph - N/A   Clear
8:53 AM 59.0 °F - 52.0 °F 78% 29.95 in 10.0 mi SW 6.9 mph - N/A   Clear
9:53 AM 63.0 °F - 52.0 °F 67% 29.94 in 10.0 mi SSW 9.2 mph - N/A   Clear
10:53 AM 66.0 °F - 51.1 °F 59% 29.94 in 10.0 mi WSW 11.5 mph - N/A   Clear
11:53 AM 68.0 °F - 51.1 °F 55% 29.92 in 10.0 mi SSW 10.4 mph - N/A   Partly Cloudy
12:53 PM 69.1 °F - 51.1 °F 53% 29.91 in 10.0 mi South 8.1 mph 18.4 mph N/A   Mostly Cloudy
1:53 PM 70.0 °F - 50.0 °F 49% 29.91 in 10.0 mi South 12.7 mph - N/A   Mostly Cloudy
2:53 PM 71.1 °F - 51.1 °F 49% 29.88 in 10.0 mi South 13.8 mph 20.7 mph N/A   Partly Cloudy
3:53 PM 72.0 °F - 51.1 °F 48% 29.87 in 10.0 mi South 12.7 mph 20.7 mph N/A   Clear
4:53 PM 71.1 °F - 51.1 °F 49% 29.86 in 10.0 mi South 11.5 mph - N/A   Clear
5:53 PM 70.0 °F - 52.0 °F 53% 29.86 in 10.0 mi South 12.7 mph 20.7 mph N/A   Clear
6:53 PM 68.0 °F - 51.1 °F 55% 29.86 in 10.0 mi South 11.5 mph 20.7 mph N/A   Clear
7:53 PM 66.0 °F - 53.1 °F 63% 29.86 in 10.0 mi SSE 9.2 mph - N/A   Clear
8:53 PM 64.0 °F - 53.1 °F 67% 29.87 in 10.0 mi SSE 10.4 mph - N/A   Clear
9:53 PM 63.0 °F - 53.1 °F 70% 29.87 in 10.0 mi SSE 8.1 mph - N/A   Clear
10:53 PM 62.1 °F - 53.1 °F 72% 29.87 in 10.0 mi SSE 8.1 mph - N/A   Clear
11:53 PM 61.0 °F - 53.1 °F 75% 29.87 in 10.0 mi SSE 6.9 mph - N/A   Clear